Home   Weather   Taichung   Past weeks

Flag for Taiwan Past Weather in Taichung, Taiwan — Yesterday and Last 2 Weeks

Now
90 °F

Broken clouds.


Feels Like: 111 °F
Forecast: 77 / 91 °F
Wind: 20 mph from Southwest

Location: Chiang Kai Shek

Current Time: Jun 27, 2017 at 9:55:28 am

Latest Report: Jun 27, 2017 at 9:01 am


Visibility: N/A

Pressure: 29.80 "Hg

Humidity: 79%

Dew Point: 82 °F

Location of TaichungLocation

Past Weather in Taichung — Graph

°F

Taichung Temperature Yesterday

Maximum temperature yesterday: 93 °F (at 11:00 am)
Minimum temperature yesterday: 82 °F (at 11:00 pm)
Average temperature yesterday: 87 °F

High & Low Weather Summary for the Past Weeks

 TemperatureHumidityPressure
High93 °F (Jun 13, 12:00 pm)100% (Jun 12, 9:30 am)29.83 "Hg (Jun 12, 9:30 am)
Low72 °F (Jun 15, 6:30 am)63% (Jun 20, 1:00 pm)29.62 "Hg (Jun 17, 1:30 am)
Average82 °F88%29.73 "Hg
* Reported Jun 12 8:30 am — Jun 27 8:30 am, Taichung. Weather by CustomWeather, © 2017

Note: Actual official high and low records may vary slightly from our data, if they occured in-between our weather recording intervals... More about our weather records

Advertising

Taichung Weather History for the Previous 24 Hours

Scroll right to see more
 ConditionsComfort  
Time TempWeatherWind HumidityBarometerVisibility
8:30 am
Tue, Jun 27
88 °FBroken clouds.17 mph84%29.80 "HgN/A
8:00 am86 °FPartly sunny.16 mph84%29.80 "HgN/A
7:30 am86 °FPartly sunny.15 mph89%29.80 "HgN/A
7:00 am86 °FScattered clouds.9 mph89%29.80 "HgN/A
6:30 am84 °FScattered clouds.8 mph89%29.80 "HgN/A
6:00 am82 °FScattered clouds.9 mph89%29.77 "HgN/A
5:30 am82 °FScattered clouds.7 mph94%29.77 "HgN/A
5:00 am82 °FPassing clouds.6 mph94%29.77 "HgN/A
4:30 am82 °FPassing clouds.8 mph94%29.77 "HgN/A
4:00 am82 °FPassing clouds.9 mph94%29.77 "HgN/A
3:30 am82 °FPassing clouds.13 mph94%29.77 "HgN/A
3:00 am82 °FPassing clouds.9 mph94%29.77 "HgN/A
2:30 am82 °FPassing clouds.8 mph94%29.77 "HgN/A
2:00 am82 °FPassing clouds.8 mph94%29.77 "HgN/A
1:30 am82 °FPassing clouds.10 mph100%29.77 "HgN/A
1:00 am84 °FPassing clouds.12 mph94%29.77 "HgN/A
12:30 am84 °FPassing clouds.7 mph94%29.80 "HgN/A
12:00 am84 °FPartly cloudy.8 mph89%29.80 "HgN/A
11:00 pm
Mon, Jun 26
82 °FPartly cloudy.7 mph100%29.83 "HgN/A
10:30 pm84 °FPartly cloudy.7 mph89%29.83 "HgN/A
10:03 pm84 °FPartly cloudy.9 mph89%29.83 "HgN/A
9:30 pm86 °FPassing clouds.12 mph89%29.80 "HgN/A
9:00 pm86 °FPassing clouds.16 mph89%29.77 "HgN/A
8:30 pm86 °FPassing clouds.17 mph89%29.77 "HgN/A
8:00 pm84 °FPassing clouds.12 mph89%29.77 "HgN/A
7:30 pm84 °FPassing clouds.10 mph94%29.74 "HgN/A
7:00 pm86 °FPassing clouds.14 mph84%29.71 "HgN/A
6:30 pm86 °FPartly sunny.14 mph84%29.71 "HgN/A
6:00 pm86 °FPartly sunny.20 mph84%29.71 "HgN/A
5:30 pm86 °FPartly sunny.18 mph89%29.71 "HgN/A
5:00 pm88 °FPartly sunny.22 mph84%29.71 "HgN/A
4:30 pm88 °FPartly sunny.23 mph84%29.71 "HgN/A
4:00 pm90 °FScattered clouds.25 mph79%29.71 "HgN/A
3:30 pm91 °FScattered clouds.25 mph75%29.71 "HgN/A
3:14 pm91 °FScattered clouds.23 mph75%29.68 "HgN/A
3:00 pm91 °FScattered clouds.26 mph75%29.68 "HgN/A
2:30 pm91 °FScattered clouds.25 mph75%29.68 "HgN/A
2:00 pm93 °FScattered clouds.25 mph71%29.71 "HgN/A
1:30 pm93 °FScattered clouds.26 mph71%29.71 "HgN/A
1:00 pm93 °FScattered clouds.25 mph67%29.71 "HgN/A
12:30 pm93 °FPartly sunny.25 mph71%29.71 "HgN/A
12:00 pm93 °FPartly sunny.24 mph71%29.74 "HgN/A
11:30 am91 °FPartly sunny.25 mph75%29.74 "HgN/A
11:00 am93 °FPartly sunny.28 mph71%29.74 "HgN/A
10:30 am91 °FPartly sunny.28 mph75%29.74 "HgN/A
10:00 am90 °FPartly sunny.28 mph79%29.74 "HgN/A
9:30 am90 °FPartly sunny.25 mph79%29.74 "HgN/A
9:01 am90 °FPartly sunny.20 mph75%29.74 "HgN/A
Weather by CustomWeather, © 2017

See weather overviewHow to use our weather pages